Cozumel, Mexico

9:32 PM EST on June 22, 2017 (GMT -0500)
Cozumel

Weather History for MMCZ - May, 2013

Change the Weather History Date:

Monday, May 13, 2013

  Actual Average Record
Temperature  
Mean Temperature 76 °F -  
Max Temperature 84 °F 87 °F 91 °F (1998)
Min Temperature 69 °F 75 °F 37 °F (1999)
Cooling Degree Days 12    
Growing Degree Days 26 (Base 50)    
Moisture  
Dew Point 71 °F    
Average Humidity 83    
Maximum Humidity 100    
Minimum Humidity 66    
Precipitation  
Precipitation 0.00 in - - ()
Sea Level Pressure  
Sea Level Pressure 30.04 in    
Wind  
Wind Speed 5 mph ()    
Max Wind Speed 15 mph    
Max Gust Speed 18 mph    
Visibility 7.3 miles    
Events      
Averages and records for this station are not official NWS values.
T = Trace of Precipitation, MM = Missing Value Source: Averaged Metar Reports

Daily Weather History Graph

Daily Weather History Graph

Search for Another Location

Airport or City:

Trip Planner

Search our weather history database for the weather conditions in past years. The results will help you decide how hot, cold, wet, or windy it might be!

Date:

Astronomy

May. 13, 2013 Rise Set
Actual Time 6:11 AM CDT 7:16 PM CDT
Civil Twilight 5:47 AM CDT 7:40 PM CDT
Nautical Twilight 5:19 AM CDT 8:08 PM CDT
Astronomical Twilight 4:51 AM CDT 8:37 PM CDT
Moon 8:59 AM CDT (5/13) 10:25 PM CDT (5/13)
Length of Visible Light 13h 52m
Length of Day
13h 05m
Waxing Crescent, 12% of the Moon is Illuminated
May 13
Waxing Crescent
May 17
First Quarter
May 24
Full
May 31
Last Quarter
Jun 8
New

Hourly Weather History & Observations

Time (CDT) Temp. Heat Index Dew Point Humidity Pressure Visibility Wind Dir Wind Speed Gust Speed Precip Events Conditions
12:46 AM 71.6 °F - 69.8 °F 94% 29.98 in 7.0 mi Calm Calm - N/A   Partly Cloudy
1:44 AM 71.6 °F - 69.8 °F 94% 30.01 in 7.0 mi East 3.5 mph - N/A   Partly Cloudy
2:45 AM 71.6 °F - 69.8 °F 94% 30.00 in 7.0 mi Calm Calm - N/A   Partly Cloudy
3:42 AM 69.8 °F - 69.8 °F 100% 30.00 in 7.0 mi ESE 4.6 mph - N/A   Partly Cloudy
4:57 AM 75.2 °F - 69.8 °F 83% 29.98 in 7.0 mi East 3.5 mph - N/A   Partly Cloudy
5:40 AM 69.8 °F - 69.8 °F 100% 30.00 in 7.0 mi East 3.5 mph - N/A   Partly Cloudy
6:45 AM 69.8 °F - 69.8 °F 100% 29.96 in 7.0 mi SE 3.5 mph - N/A   Mostly Cloudy
7:42 AM 73.4 °F - 71.6 °F 94% 30.02 in 7.0 mi ESE 5.8 mph - N/A   Overcast
8:41 AM 78.8 °F - 71.6 °F 78% 30.05 in 7.0 mi East 8.1 mph - N/A   Overcast
9:43 AM 80.6 °F 84.6 °F 71.6 °F 74% 30.10 in 7.0 mi East 9.2 mph - N/A   Mostly Cloudy
10:40 AM 80.6 °F 84.6 °F 71.6 °F 74% 30.09 in 8.0 mi ENE 8.1 mph - N/A   Mostly Cloudy
11:48 AM 82.4 °F 87.2 °F 71.6 °F 70% 30.09 in 8.0 mi ENE 11.5 mph - N/A   Mostly Cloudy
12:49 PM 84.2 °F 89.6 °F 71.6 °F 66% 30.05 in 8.0 mi NE 15.0 mph - N/A   Mostly Cloudy
1:44 PM 82.4 °F 86.3 °F 69.8 °F 66% 30.07 in 8.0 mi ENE 10.4 mph - N/A   Mostly Cloudy
3:46 PM 82.4 °F 87.2 °F 71.6 °F 70% 30.07 in 8.0 mi ENE 11.5 mph - N/A   Mostly Cloudy
4:40 PM 82.4 °F 88.2 °F 73.4 °F 74% 30.03 in 8.0 mi East 9.2 mph - N/A   Mostly Cloudy
5:50 PM 80.6 °F 85.4 °F 73.4 °F 79% 30.04 in 8.0 mi ENE 10.4 mph - N/A   Mostly Cloudy
6:44 PM 78.8 °F - 73.4 °F 83% 30.01 in 7.0 mi ENE 6.9 mph 18.4 mph N/A   Mostly Cloudy
7:44 PM 77.0 °F - 71.6 °F 83% 30.05 in 7.0 mi East 8.1 mph - N/A   Mostly Cloudy
8:44 PM 77.0 °F - 69.8 °F 78% 30.06 in 7.0 mi ENE 9.2 mph - N/A   Scattered Clouds
9:55 PM 77.0 °F - 71.6 °F 83% 30.11 in 7.0 mi NE 4.6 mph - N/A   Scattered Clouds
10:46 PM 75.2 °F - 69.8 °F 83% 30.09 in 7.0 mi ENE 6.9 mph - N/A   Scattered Clouds
11:56 PM 75.2 °F - 69.8 °F 83% 30.09 in 7.0 mi ENE 5.8 mph - N/A   Scattered Clouds